Valparaiso, IN

11:14 PM CST on February 09, 2016 (GMT -0600)
Porter County Municipal

Weather History for KVPZ - June, 2012

Change the Weather History Date:

Sunday, June 10, 2012

  Actual Average Record
Temperature  
Mean Temperature 77 °F 68 °F  
Max Temperature 92 °F 78 °F 92 °F (2012)
Min Temperature 62 °F 57 °F 49 °F (2006)
Degree Days  
Heating Degree Days 0 2  
Month to date heating degree days 27 26  
Since 1 June heating degree days 26  
Since 1 July heating degree days 6305  
Cooling Degree Days 12 4  
Month to date cooling degree days 26 37  
Year to date cooling degree days 177 84  
Since 1 June cooling degree days 37  
Growing Degree Days 27 (Base 50)    
Moisture  
Dew Point 56 °F    
Average Humidity 47    
Maximum Humidity 70    
Minimum Humidity 28    
Precipitation  
Precipitation 0.00 in 0.13 in 1.38 in (2013)
Month to date precipitation 0.20 1.35  
Year to date precipitation 9.97 14.33  
Sea Level Pressure  
Sea Level Pressure 29.95 in    
Wind  
Wind Speed 7 mph (South)    
Max Wind Speed 17 mph    
Max Gust Speed 24 mph    
Visibility 10 miles    
Events      
T = Trace of Precipitation, MM = Missing Value Source: NWS Daily Summary

Daily Weather History Graph

Daily Weather History Graph

Search for Another Location

Airport or City:

Trip Planner

Search our weather history database for the weather conditions in past years. The results will help you decide how hot, cold, wet, or windy it might be!

Date:

Astronomy

Jun. 10, 2012 Rise Set
Actual Time 5:14 AM CDT 8:21 PM CDT
Civil Twilight 4:40 AM CDT 8:55 PM CDT
Nautical Twilight 3:57 AM CDT 9:38 PM CDT
Astronomical Twilight 3:05 AM CDT 10:30 PM CDT
Moon 12:10 AM CDT 12:06 PM CDT
Length of Visible Light 16h 15m
Length of Day
15h 07m
Waning Gibbous, 58% of the Moon is Illuminated
Jun 10
Waning Gibbous
Jun 11
Last Quarter
Jun 19
New
Jun 26
First Quarter
Jul 3
Full

Hourly Weather History & Observations

Time (CDT) Temp. Heat Index Dew Point Humidity Pressure Visibility Wind Dir Wind Speed Gust Speed Precip Events Conditions
12:53 AM 70.0 °F - 51.1 °F 51% 29.93 in 10.0 mi Calm Calm - N/A   Clear
2:53 AM 63.0 °F - 53.1 °F 70% 29.94 in 10.0 mi ENE 3.5 mph - N/A   Clear
3:53 AM 66.0 °F - 52.0 °F 60% 29.94 in 10.0 mi SSE 3.5 mph - N/A   Clear
4:53 AM 66.0 °F - 53.1 °F 63% 29.96 in 10.0 mi South 3.5 mph - N/A   Clear
5:53 AM 64.0 °F - 54.0 °F 70% 29.98 in 10.0 mi Calm Calm - N/A   Clear
6:53 AM 69.1 °F - 55.9 °F 63% 29.99 in 10.0 mi Calm Calm - N/A   Clear
7:53 AM 73.0 °F - 57.9 °F 59% 29.99 in 10.0 mi South 5.8 mph - N/A   Clear
8:53 AM 78.1 °F - 57.9 °F 50% 30.00 in 10.0 mi SW 5.8 mph - N/A   Clear
9:53 AM 82.0 °F 81.7 °F 57.0 °F 42% 30.00 in 10.0 mi SSW 6.9 mph - N/A   Clear
10:53 AM 86.0 °F 84.9 °F 57.0 °F 37% 30.00 in 10.0 mi South 10.4 mph - N/A   Clear
11:53 AM 86.0 °F 84.7 °F 55.9 °F 36% 30.00 in 10.0 mi Variable 6.9 mph - N/A   Clear
12:53 PM 89.1 °F 87.7 °F 57.0 °F 34% 29.98 in 10.0 mi SSE 9.2 mph - N/A   Scattered Clouds
1:53 PM 90.0 °F 87.9 °F 55.0 °F 30% 29.96 in 10.0 mi South 11.5 mph 17.3 mph N/A   Partly Cloudy
2:53 PM 91.0 °F 88.7 °F 54.0 °F 28% 29.94 in 10.0 mi SSE 11.5 mph - N/A   Partly Cloudy
3:53 PM 90.0 °F 88.1 °F 55.9 °F 31% 29.93 in 10.0 mi South 13.8 mph 23.0 mph N/A   Mostly Cloudy
4:53 PM 90.0 °F 87.9 °F 55.0 °F 30% 29.92 in 10.0 mi South 13.8 mph 24.2 mph N/A   Clear
5:53 PM 88.0 °F 86.5 °F 55.9 °F 34% 29.91 in 10.0 mi South 11.5 mph - N/A   Clear
6:53 PM 87.1 °F 85.7 °F 55.9 °F 35% 29.91 in 10.0 mi South 11.5 mph - N/A   Clear
7:53 PM 84.0 °F 83.3 °F 57.0 °F 40% 29.91 in 10.0 mi South 5.8 mph - N/A   Clear
8:53 PM 80.1 °F 80.7 °F 59.0 °F 48% 29.90 in 10.0 mi SSE 5.8 mph - N/A   Clear
9:53 PM 78.1 °F - 59.0 °F 52% 29.91 in 10.0 mi SSE 6.9 mph - N/A   Clear
10:53 PM 75.9 °F - 59.0 °F 56% 29.91 in 10.0 mi SSE 4.6 mph - N/A   Clear
11:53 PM 73.9 °F - 60.1 °F 62% 29.92 in 10.0 mi South 4.6 mph - N/A   Clear